Вернуться в каталог

STARLINK-34136

АктивенСвязьVLEO
NORAD 64112·PAYLOAD·🇺🇸 United States

Запущен May 23, 2025 с Vandenberg Space Force Base

Loading…

Ближайшие Пролёты (ближайшие 24 часа)

TLE

СвежийSource: CelesTrak SupGP

Эпоха: Sep 14, 2026, 20:59 UTC

1 64112C 25110S   26257.87479167  .00036236  00000+0  11646-2 0  2570
2 64112  53.1590 226.4711 0001407  88.7244 116.6062 15.31702294    14

Отслеживайте STARLINK-34136 в реальном времени с AllMySat

Download on the App Store